Weather History for Jacksonville Craig, FL

Change the Weather History Date:

Wednesday, October 12, 2011

  Actual Average Record
Temperature  
Mean Temperature 76 °F -  
Max Temperature 84 °F 78 °F 88 °F (2006)
Min Temperature 69 °F 63 °F 51 °F (2000)
Cooling Degree Days 12    
Growing Degree Days 26 (Base 50)    
Moisture  
Dew Point 69 °F    
Average Humidity 78    
Maximum Humidity 96    
Minimum Humidity 57    
Precipitation  
Precipitation 0.00 in - - ()
Sea Level Pressure  
Sea Level Pressure 29.81 in    
Wind  
Wind Speed 5 mph (SW)    
Max Wind Speed 14 mph    
Max Gust Speed 16 mph    
Visibility 10 miles    
Events Rain    
Averages and records for this station are not official NWS values.
T = Trace of Precipitation, MM = Missing Value Source: NWS Daily Summary

Daily Weather History Graph

Daily Weather History Graph

Search for Another Location

Airport:

Trip Planner

Search our weather history database for the weather conditions in past years. The results will help you decide how hot, cold, wet, or windy it might be!

Date:

Astronomy

Oct. 12, 2011 Rise Set
Actual Time 7:26 AM EDT 6:58 PM EDT
Civil Twilight 7:01 AM EDT 7:22 PM EDT
Nautical Twilight 6:34 AM EDT 7:50 PM EDT
Astronomical Twilight 6:06 AM EDT 8:18 PM EDT
Moon 7:08 PM EDT (10/12) 7:52 AM EDT (10/12)
Length of Visible Light 12h 20m
Length of Day
11h 32m
Full, 100% of the Moon is Illuminated
Oct 12
Full
Oct 19
Last Quarter
Oct 26
New
Nov 2
First Quarter
Nov 10
Full

Hourly Weather History & Observations

Time (EDT) Temp. Heat Index Dew Point Humidity Pressure Visibility Wind Dir Wind Speed Gust Speed Precip Events Conditions
12:53 AM 75.9 °F - 70.0 °F 82% 29.81 in 10.0 mi WSW 3.5 mph - N/A   Partly Cloudy
1:53 AM 73.9 °F - 69.1 °F 85% 29.82 in 10.0 mi SW 3.5 mph - N/A   Partly Cloudy
3:53 AM 72.0 °F - 69.1 °F 91% 29.80 in 10.0 mi SSW 3.5 mph - N/A   Clear
4:53 AM 70.0 °F - 66.9 °F 90% 29.80 in 10.0 mi Calm Calm - N/A   Clear
5:53 AM 69.1 °F - 68.0 °F 96% 29.82 in 10.0 mi South 3.5 mph - N/A   Clear
6:53 AM 70.0 °F - 68.0 °F 93% 29.83 in 10.0 mi Calm Calm - N/A   Clear
7:53 AM 70.0 °F - 68.0 °F 93% 29.85 in 10.0 mi South 3.5 mph - N/A   Partly Cloudy
8:53 AM 73.0 °F - 70.0 °F 90% 29.86 in 10.0 mi SW 8.1 mph - N/A   Clear
10:53 AM 79.0 °F - 69.1 °F 72% 29.84 in 10.0 mi SW 10.4 mph - N/A   Clear
11:53 AM 81.0 °F 83.8 °F 68.0 °F 65% 29.83 in 10.0 mi SW 10.4 mph - N/A   Partly Cloudy
12:53 PM 82.0 °F 84.5 °F 66.9 °F 60% 29.82 in 10.0 mi WSW 11.5 mph 16.1 mph N/A   Mostly Cloudy
1:53 PM 84.9 °F 88.2 °F 68.0 °F 57% 29.80 in 10.0 mi WSW 8.1 mph - N/A   Mostly Cloudy
2:53 PM 80.1 °F 82.9 °F 69.1 °F 69% 29.79 in 10.0 mi West 6.9 mph - 0.00 in Rain Light Rain
3:10 PM 80.6 °F 83.9 °F 69.8 °F 70% 29.79 in 10.0 mi WSW 13.8 mph - 0.00 in   Overcast
3:18 PM 80.6 °F 83.9 °F 69.8 °F 70% 29.79 in 10.0 mi West 11.5 mph - 0.00 in   Overcast
3:53 PM 81.0 °F 83.8 °F 68.0 °F 65% 29.78 in 10.0 mi Variable 5.8 mph - 0.00 in   Overcast
5:53 PM 80.1 °F 82.9 °F 69.1 °F 69% 29.78 in 10.0 mi SW 6.9 mph - N/A   Overcast
6:53 PM 79.0 °F - 70.0 °F 74% 29.78 in 10.0 mi SW 4.6 mph - N/A   Mostly Cloudy
7:53 PM 78.1 °F - 69.1 °F 74% 29.79 in 10.0 mi Calm Calm - N/A   Scattered Clouds
8:53 PM 77.0 °F - 70.0 °F 79% 29.81 in 10.0 mi Calm Calm - N/A   Mostly Cloudy
9:53 PM 75.9 °F - 70.0 °F 82% 29.82 in 10.0 mi SW 5.8 mph - N/A   Partly Cloudy
10:53 PM 75.9 °F - 70.0 °F 82% 29.82 in 10.0 mi SW 6.9 mph - N/A   Partly Cloudy
11:53 PM 75.0 °F - 70.0 °F 84% 29.82 in 10.0 mi SW 6.9 mph - N/A   Clear